User: anonymous   Login
Location: Unspecified
(51.3762°N, 0.0000°E)
Time: 04:19:49
(UTC+00:00)
Language:

KKS-1 - Orbit

View from above orbital plane
View from above orbital plane
View from above satellite
View from above satellite

Ground track
Ground track

The orbit data is extracted from the following two-line orbital elements,

1 33499U 09002H   19233.89709817 +.00000033 +00000-0 +12862-4 0  9995
2 33499 098.3471 074.6411 0009389 010.4960 349.6442 14.75455812568265
Epoch (UTC): 21 August 2019 21:31:49
Eccentricity: 0.0009389
inclination: 98.3471°
perigee height: 637 km
apogee height: 650 km
right ascension of ascending node: 74.6411°
argument of perigee: 10.4960°
revolutions per day: 14.75455812
mean anomaly at epoch: 349.6442°
orbit number at epoch: 56826

The dashed part of the orbit path shows where the satellite is in the earth's shadow,  

DLR